ANA264 RJFF-RJTT

Flight info

Callsign ANA264
Flight time N/A
Altitude 39000
Route IPRIR Y231 OMKAT Y235 FLUTE Y23 ARTIC Y71 XAC
Aircraft B772/H-SDE2E3FGHIJ5LORVWXY/LB1D1

Departure

Time 2026-04-29 08:54
Airport Fukuoka Airport (RJFF)

Arrival

Time N/A
Airport Tokyo Haneda International Airport (RJTT)
Time Latitude Longitude Altitude Speed Heading
2026-04-29 08:29 33.59787 130.44689 29 ft 0 kts 60°
2026-04-29 08:44 33.59783 130.44680 29 ft 2 kts 60°
2026-04-29 08:44 33.59775 130.44663 30 ft 2 kts 60°
2026-04-29 08:44 33.59767 130.44646 28 ft 2 kts 60°
2026-04-29 08:44 33.59758 130.44629 28 ft 2 kts 60°
2026-04-29 08:45 33.59749 130.44613 27 ft 2 kts 13°
2026-04-29 08:45 33.59734 130.44616 27 ft 2 kts 332°
2026-04-29 08:45 33.59732 130.44617 27 ft 0 kts 331°
2026-04-29 08:48 33.59735 130.44614 28 ft 3 kts 331°
2026-04-29 08:48 33.59760 130.44597 27 ft 4 kts 326°
2026-04-29 08:48 33.59777 130.44569 29 ft 4 kts 290°
2026-04-29 08:48 33.59772 130.44535 29 ft 4 kts 241°
2026-04-29 08:49 33.59745 130.44520 29 ft 5 kts 186°
2026-04-29 08:49 33.59678 130.44553 28 ft 14 kts 150°
2026-04-29 08:49 33.59581 130.44620 29 ft 18 kts 150°
2026-04-29 08:49 33.59473 130.44694 29 ft 18 kts 150°
2026-04-29 08:50 33.59365 130.44768 28 ft 18 kts 150°
2026-04-29 08:50 33.59257 130.44841 28 ft 18 kts 151°
2026-04-29 08:50 33.59148 130.44914 30 ft 18 kts 150°
2026-04-29 08:50 33.59041 130.44987 30 ft 18 kts 150°
2026-04-29 08:51 33.58932 130.45061 29 ft 18 kts 150°
2026-04-29 08:51 33.58824 130.45134 31 ft 18 kts 150°
2026-04-29 08:51 33.58719 130.45208 30 ft 18 kts 150°
2026-04-29 08:51 33.58609 130.45282 33 ft 18 kts 151°
2026-04-29 08:52 33.58470 130.45376 34 ft 28 kts 150°
2026-04-29 08:52 33.58297 130.45496 37 ft 29 kts 150°
2026-04-29 08:52 33.58122 130.45614 38 ft 29 kts 150°
2026-04-29 08:52 33.57948 130.45733 43 ft 29 kts 150°
2026-04-29 08:53 33.57798 130.45834 46 ft 17 kts 150°
2026-04-29 08:53 33.57705 130.45839 47 ft 15 kts 222°
2026-04-29 08:53 33.57666 130.45729 47 ft 15 kts 279°
2026-04-29 08:53 33.57734 130.45653 47 ft 17 kts 329°
2026-04-29 08:54 33.58012 130.45465 43 ft 87 kts 330°
2026-04-29 08:54 33.58790 130.44935 54 ft 167 kts 330°
2026-04-29 08:54 33.59830 130.44220 1073 ft 166 kts 332°
2026-04-29 08:54 33.60830 130.43544 2380 ft 164 kts 332°
2026-04-29 08:55 33.61842 130.42852 3158 ft 169 kts 332°
2026-04-29 08:55 33.62529 130.42383 3616 ft 176 kts 331°
2026-04-29 08:55 33.64032 130.41361 4063 ft 215 kts 333°
2026-04-29 08:55 33.65592 130.40989 4310 ft 251 kts
2026-04-29 08:56 33.67166 130.41988 5093 ft 269 kts 46°
2026-04-29 08:56 33.68148 130.43902 5902 ft 279 kts 63°
2026-04-29 08:56 33.68975 130.46059 6633 ft 289 kts 73°
2026-04-29 08:56 33.69017 130.48483 7480 ft 295 kts 108°
2026-04-29 08:57 33.68040 130.50610 8553 ft 292 kts 136°
2026-04-29 08:57 33.66478 130.52141 9595 ft 290 kts 153°
2026-04-29 08:57 33.64720 130.53372 10461 ft 299 kts 156°
2026-04-29 08:57 33.62776 130.54517 10821 ft 323 kts 162°
2026-04-29 08:58 33.60655 130.55557 11604 ft 334 kts 163°
2026-04-29 08:58 33.58471 130.56603 12524 ft 342 kts 164°
2026-04-29 08:58 33.56245 130.57681 13522 ft 348 kts 164°
2026-04-29 08:58 33.53980 130.58795 14396 ft 356 kts 164°
2026-04-29 08:59 33.51672 130.59944 15263 ft 361 kts 164°
2026-04-29 08:59 33.49343 130.61113 16216 ft 364 kts 165°
2026-04-29 08:59 33.47000 130.62293 17187 ft 367 kts 165°
2026-04-29 08:59 33.44679 130.63514 18004 ft 374 kts 160°
2026-04-29 09:00 33.42583 130.65520 18640 ft 398 kts 138°
2026-04-29 09:00 33.40820 130.68147 19216 ft 410 kts 135°
2026-04-29 09:00 33.39058 130.70862 19851 ft 412 kts 135°
2026-04-29 09:00 33.37267 130.73561 20111 ft 414 kts 136°
2026-04-29 09:01 33.36062 130.75336 20090 ft 415 kts 136°
2026-04-29 09:01 33.34230 130.78005 20094 ft 414 kts 136°
2026-04-29 09:01 33.32677 130.80948 20273 ft 434 kts 117°
2026-04-29 09:01 33.31911 130.84499 20981 ft 448 kts 101°
2026-04-29 09:02 33.32015 130.89450 22057 ft 455 kts 77°
2026-04-29 09:02 33.32911 130.93099 22670 ft 461 kts 71°
2026-04-29 09:02 33.33590 130.95531 23089 ft 466 kts 71°
2026-04-29 09:02 33.34601 130.99299 23780 ft 473 kts 72°
2026-04-29 09:03 33.35536 131.03028 24421 ft 477 kts 73°
2026-04-29 09:03 33.36460 131.06860 25083 ft 481 kts 74°
2026-04-29 09:03 33.37386 131.10732 25716 ft 485 kts 73°
2026-04-29 09:03 33.38326 131.14635 26316 ft 491 kts 73°
2026-04-29 09:04 33.39170 131.18620 26889 ft 496 kts 78°
2026-04-29 09:04 33.39818 131.22699 27507 ft 501 kts 81°
2026-04-29 09:04 33.40379 131.26829 28114 ft 504 kts 82°
2026-04-29 09:04 33.40926 131.30994 28689 ft 509 kts 82°
2026-04-29 09:05 33.41497 131.35201 29231 ft 514 kts 81°
2026-04-29 09:05 33.42088 131.39385 29726 ft 519 kts 81°
2026-04-29 09:05 33.42714 131.43664 30223 ft 524 kts 81°
2026-04-29 09:05 33.43355 131.47983 30663 ft 528 kts 80°
2026-04-29 09:06 33.44003 131.52320 31141 ft 530 kts 80°
2026-04-29 09:06 33.44650 131.56673 31651 ft 532 kts 80°
2026-04-29 09:06 33.45293 131.61032 32111 ft 534 kts 80°
2026-04-29 09:06 33.45938 131.65435 32573 ft 537 kts 80°
2026-04-29 09:07 33.46582 131.69844 32968 ft 540 kts 80°
2026-04-29 09:07 33.47229 131.74279 33368 ft 543 kts 80°
2026-04-29 09:07 33.47878 131.78752 33745 ft 546 kts 80°
2026-04-29 09:07 33.48525 131.83241 34111 ft 549 kts 80°
2026-04-29 09:08 33.49173 131.87759 34418 ft 551 kts 80°
2026-04-29 09:08 33.49824 131.92304 34720 ft 554 kts 80°
2026-04-29 09:08 33.50474 131.96857 35027 ft 556 kts 80°
2026-04-29 09:08 33.51128 132.01439 35389 ft 556 kts 80°
2026-04-29 09:09 33.51768 132.05940 35801 ft 555 kts 80°
2026-04-29 09:09 33.52421 132.10545 36231 ft 553 kts 79°
2026-04-29 09:09 33.53055 132.15027 36647 ft 552 kts 79°
2026-04-29 09:09 33.53694 132.19556 37027 ft 551 kts 79°
2026-04-29 09:10 33.54331 132.24081 37400 ft 551 kts 79°
2026-04-29 09:10 33.54989 132.28610 37785 ft 549 kts 77°
2026-04-29 09:10 33.55861 132.33057 38144 ft 547 kts 71°
2026-04-29 09:10 33.57053 132.37366 38494 ft 544 kts 67°
2026-04-29 09:11 33.58349 132.41630 38812 ft 544 kts 66°
2026-04-29 09:11 33.59666 132.45886 39007 ft 546 kts 66°
2026-04-29 09:11 33.60990 132.50181 39051 ft 548 kts 66°
2026-04-29 09:12 33.63579 132.58764 39076 ft 545 kts 66°
2026-04-29 09:12 33.66100 132.67291 39071 ft 544 kts 67°
2026-04-29 09:13 33.68618 132.75848 39083 ft 544 kts 66°
2026-04-29 09:13 33.71139 132.84420 39080 ft 545 kts 66°
2026-04-29 09:14 33.73665 132.93028 39090 ft 546 kts 66°
2026-04-29 09:14 33.76186 133.01651 39093 ft 546 kts 66°
2026-04-29 09:15 33.78702 133.10271 39102 ft 546 kts 66°
2026-04-29 09:15 33.81200 133.18904 39090 ft 546 kts 66°
2026-04-29 09:16 33.83656 133.27467 39102 ft 545 kts 66°
2026-04-29 09:16 33.86122 133.36078 39091 ft 543 kts 67°
2026-04-29 09:17 33.88586 133.44688 39101 ft 545 kts 67°
2026-04-29 09:17 33.91059 133.53322 39093 ft 546 kts 67°
2026-04-29 09:18 33.93532 133.61972 39088 ft 545 kts 67°
2026-04-29 09:18 33.95783 133.69864 39094 ft 544 kts 67°
2026-04-29 09:19 33.98220 133.78424 39101 ft 543 kts 67°
2026-04-29 09:19 34.00679 133.87032 39102 ft 544 kts 67°
2026-04-29 09:20 34.03131 133.95651 39102 ft 543 kts 68°
2026-04-29 09:20 34.05045 134.04502 39102 ft 548 kts 75°
2026-04-29 09:21 34.06621 134.13502 39102 ft 549 kts 75°
2026-04-29 09:21 34.08240 134.22514 39107 ft 550 kts 75°
2026-04-29 09:22 34.09901 134.31544 39092 ft 551 kts 75°
2026-04-29 09:22 34.11531 134.40542 39083 ft 552 kts 75°
2026-04-29 09:23 34.13156 134.49607 39082 ft 553 kts 75°
2026-04-29 09:23 34.14778 134.58681 39073 ft 552 kts 75°
2026-04-29 09:24 34.16394 134.67752 39077 ft 552 kts 75°
2026-04-29 09:24 34.18000 134.76810 39077 ft 552 kts 75°
2026-04-29 09:25 34.19601 134.85874 39078 ft 551 kts 75°
2026-04-29 09:25 34.21192 134.94925 39081 ft 551 kts 75°
2026-04-29 09:26 34.22769 135.03994 39074 ft 551 kts 76°
2026-04-29 09:26 34.24300 135.13006 39076 ft 551 kts 76°
2026-04-29 09:27 34.25834 135.22095 39077 ft 551 kts 76°
2026-04-29 09:27 34.27364 135.31179 39076 ft 551 kts 76°
2026-04-29 09:28 34.28894 135.40287 39073 ft 552 kts 76°
2026-04-29 09:28 34.30416 135.49391 39070 ft 552 kts 76°
2026-04-29 09:29 34.31929 135.58488 39075 ft 552 kts 76°
2026-04-29 09:29 34.34180 135.72109 39077 ft 552 kts 76°
2026-04-29 09:30 34.35678 135.81225 39077 ft 552 kts 76°
2026-04-29 09:30 34.37170 135.90346 39067 ft 553 kts 76°
2026-04-29 09:31 34.38656 135.99483 39062 ft 552 kts 76°
2026-04-29 09:31 34.40131 136.08597 39062 ft 551 kts 76°
2026-04-29 09:32 34.41597 136.17696 39063 ft 550 kts 76°
2026-04-29 09:32 34.43046 136.26796 39056 ft 550 kts 76°
2026-04-29 09:33 34.44489 136.35907 39057 ft 550 kts 77°
2026-04-29 09:33 34.45925 136.45012 39055 ft 551 kts 77°
2026-04-29 09:34 34.47360 136.54142 39060 ft 551 kts 77°
2026-04-29 09:34 34.48781 136.63240 39053 ft 552 kts 77°
2026-04-29 09:35 34.50203 136.72388 39048 ft 553 kts 77°
2026-04-29 09:35 34.51622 136.81566 39052 ft 553 kts 77°
2026-04-29 09:36 34.53033 136.90730 39045 ft 553 kts 77°
2026-04-29 09:36 34.54044 136.99982 39043 ft 555 kts 87°
2026-04-29 09:37 34.54108 137.09349 39048 ft 555 kts 90°
2026-04-29 09:37 34.54088 137.18711 39041 ft 555 kts 89°
2026-04-29 09:38 34.54126 137.28005 39036 ft 555 kts 89°
2026-04-29 09:38 34.54190 137.37364 39031 ft 554 kts 89°
2026-04-29 09:39 34.54244 137.46710 39004 ft 554 kts 89°
2026-04-29 09:39 34.54267 137.51419 38382 ft 562 kts 89°
2026-04-29 09:39 34.54288 137.56148 37715 ft 560 kts 89°
2026-04-29 09:40 34.54306 137.60863 37110 ft 557 kts 90°
2026-04-29 09:40 34.54316 137.65561 36471 ft 556 kts 90°
2026-04-29 09:40 34.54320 137.70240 36016 ft 551 kts 90°
2026-04-29 09:40 34.54321 137.74867 35623 ft 545 kts 90°
2026-04-29 09:41 34.54321 137.79451 35196 ft 541 kts 91°
2026-04-29 09:41 34.54320 137.84000 34784 ft 537 kts 91°
2026-04-29 09:41 34.54318 137.88510 34367 ft 533 kts 91°
2026-04-29 09:41 34.54314 137.92987 33944 ft 529 kts 91°
2026-04-29 09:42 34.54310 137.97375 33477 ft 526 kts 91°
2026-04-29 09:42 34.54304 138.01798 33031 ft 522 kts 91°
2026-04-29 09:42 34.54296 138.06191 32609 ft 518 kts 91°
2026-04-29 09:42 34.54287 138.10537 32191 ft 515 kts 91°
2026-04-29 09:43 34.54278 138.14873 31775 ft 511 kts 91°
2026-04-29 09:43 34.54267 138.19177 31365 ft 508 kts 91°
2026-04-29 09:43 34.54255 138.23415 30961 ft 506 kts 91°
2026-04-29 09:43 34.54242 138.27673 30555 ft 503 kts 91°
2026-04-29 09:44 34.54236 138.31906 30148 ft 501 kts 89°
2026-04-29 09:44 34.54547 138.36099 29675 ft 499 kts 79°
2026-04-29 09:44 34.55341 138.40170 29245 ft 494 kts 70°
2026-04-29 09:44 34.56524 138.44045 28940 ft 486 kts 63°
2026-04-29 09:45 34.58004 138.47683 28691 ft 475 kts 56°
2026-04-29 09:45 34.59578 138.50846 28411 ft 471 kts 51°
2026-04-29 09:45 34.61515 138.54133 28305 ft 483 kts 46°
2026-04-29 09:45 34.62754 138.55989 28672 ft 479 kts 43°
2026-04-29 09:46 34.64862 138.58844 29864 ft 456 kts 38°
2026-04-29 09:46 34.67044 138.61494 31002 ft 433 kts 34°